Location: *
(43.2048°N, 0.1612°E)
Time: 21:45:47
(UTC+00:00)

Cosmos 2333 Rocket - Pass Details

Date: 30 September 2023
Orbit: 837 x 864 km, 70.8° (Epoch: 05 December)

Event Time Altitude Azimuth Distance (km) Brightness Sun altitude
Rises 05:11:38 0° 313° (NW) 3,431 5.0 -8.7°
Reaches altitude 10° 05:16:12 10° 280° (W) 2,494 4.0 -7.9°
Maximum altitude 05:17:40 11° 265° (W) 2,422 3.9 -7.7°
Drops below altitude 10° 05:19:09 10° 249° (WSW) 2,493 4.0 -7.4°
Sets 05:23:44 0° 216° (SW) 3,427 5.0 -6.5°
